Location: Quesnel
(52.9830°N, 122.4830°W)
Time: 16:49:15
(UTC-08:00)

ISS - All Passes

Search period start: 16 January 2017 00:00
Search period end: 26 January 2017 00:00
Orbit: 400 x 410 km, 51.6° (Epoch: 17 January)

Date Brightness Start Highest point End Pass type
(mag) Time Alt. Az. Time Alt. Az. Time Alt. Az.
16 Jan - 00:35:47 10° SSW 00:38:11 19° SSE 00:40:35 10° E night (unlit)
16 Jan - 02:11:01 10° WSW 02:14:13 54° SSE 02:17:25 10° E night (unlit)
16 Jan - 03:47:20 10° W 03:50:34 68° S 03:53:48 10° ESE night (unlit)
16 Jan - 05:23:51 10° W 05:26:48 32° SSW 05:29:45 10° SE visible
16 Jan - 23:44:43 10° S 23:46:15 13° SE 23:47:48 10° ESE night (unlit)
17 Jan - 01:19:02 10° SW 01:22:07 42° SSE 01:25:14 10° E night (unlit)
17 Jan - 02:55:11 10° W 02:58:26 71° S 03:01:41 10° E night (unlit)
17 Jan - 04:31:38 10° W 04:34:45 43° SSW 04:37:52 10° SE visible
17 Jan - 06:08:56 10° WSW 06:10:39 14° SW 06:12:22 10° S visible
18 Jan - 00:27:09 10° SW 00:30:04 31° SSE 00:33:00 10° E night (unlit)
18 Jan - 02:03:03 10° WSW 02:06:17 67° S 02:09:32 10° E night (unlit)
18 Jan - 03:39:27 10° W 03:42:39 56° SSW 03:45:51 10° ESE night (unlit)
18 Jan - 05:16:14 10° W 05:18:42 20° SSW 05:21:11 10° SSE visible
18 Jan - 23:35:28 10° SSW 23:38:03 22° SSE 23:40:39 10° E night (unlit)
19 Jan - 01:10:56 10° WSW 01:14:09 58° SSE 01:17:21 10° E night (unlit)
19 Jan - 02:47:16 10° W 02:50:31 66° S 02:53:44 10° ESE night (unlit)
19 Jan - 04:23:50 10° W 04:26:42 28° SSW 04:29:33 10° SE visible
19 Jan - 22:44:08 10° S 22:46:04 15° SE 22:48:01 10° ESE night (unlit)
20 Jan - 00:18:52 10° SW 00:22:00 46° SSE 00:25:09 10° E night (unlit)
20 Jan - 01:55:05 10° W 01:58:20 71° S 02:01:35 10° E night (unlit)
20 Jan - 03:31:33 10° W 03:34:37 39° SSW 03:37:41 10° SE night (unlit)
20 Jan - 05:09:14 10° WSW 05:10:27 12° SW 05:11:41 10° SSW visible
20 Jan - 23:26:54 10° SW 23:29:54 34° SSE 23:32:54 10° E night (unlit)
21 Jan - 01:02:54 10° W 01:06:09 69° S 01:09:23 10° E night (unlit)
21 Jan - 02:39:19 10° W 02:42:30 51° SSW 02:45:40 10° ESE night (unlit)
21 Jan - 04:16:14 10° WSW 04:18:30 18° SW 04:20:46 10° S night (unlit)
21 Jan - 22:35:06 10° SSW 22:37:49 25° SSE 22:40:33 10° E night (unlit)
22 Jan - 00:10:44 10° WSW 00:13:57 62° S 00:17:11 10° E night (unlit)
22 Jan - 01:47:06 10° W 01:50:20 62° S 01:53:32 10° ESE night (unlit)
22 Jan - 03:23:43 10° W 03:26:28 25° SSW 03:29:13 10° SSE night (unlit)
22 Jan - 21:43:33 10° S 21:45:47 17° SE 21:48:01 10° ESE night (unlit)
22 Jan - 23:18:36 10° WSW 23:21:46 50° SSE 23:24:57 10° E night (unlit)
23 Jan - 00:54:52 10° W 00:58:07 70° S 01:01:21 10° E night (unlit)
23 Jan - 02:31:22 10° W 02:34:23 35° SSW 02:37:22 10° SE night (unlit)
23 Jan - 20:52:41 10° SSE 20:53:48 11° SE 20:54:55 10° ESE night (unlit)
23 Jan - 22:26:33 10° SW 22:29:36 38° SSE 22:32:41 10° E night (unlit)
24 Jan - 00:02:38 10° W 00:05:53 70° S 00:09:08 10° E night (unlit)
24 Jan - 01:39:04 10° W 01:42:13 47° SSW 01:45:22 10° ESE night (unlit)
24 Jan - 03:16:10 10° WSW 03:18:09 15° SW 03:20:09 10° S night (unlit)
24 Jan - 21:34:38 10° SSW 21:37:29 28° SSE 21:40:20 10° E night (unlit)
24 Jan - 23:10:25 10° WSW 23:13:40 65° S 23:16:54 10° E night (unlit)
25 Jan - 00:46:48 10° W 00:50:01 59° SSW 00:53:14 10° ESE night (unlit)
25 Jan - 02:23:30 10° W 02:26:07 22° SSW 02:28:43 10° SSE night (unlit)
25 Jan - 20:42:57 10° SSW 20:45:23 20° SSE 20:47:51 10° E night (unlit)
25 Jan - 22:18:13 10° WSW 22:21:26 55° SSE 22:24:38 10° E night (unlit)
